Weather History for Valladolid Airport, Spain

Change the Weather History Date:

Tuesday, April 16, 2013

  Actual Average Record
Temperature  
Mean Temperature 56 °F -  
Max Temperature 69 °F - - ()
Min Temperature 44 °F - - ()
Degree Days  
Heating Degree Days 8    
Growing Degree Days 6 (Base 50)    
Moisture  
Dew Point 46 °F    
Average Humidity 58    
Maximum Humidity 87    
Minimum Humidity 40    
Precipitation  
Precipitation 0.00 in - - ()
Sea Level Pressure  
Sea Level Pressure 30.21 in    
Wind  
Wind Speed 1 mph ()    
Max Wind Speed 4 mph    
Max Gust Speed -    
T = Trace of Precipitation, MM = Missing Value Source: Averaged Metar Reports

Daily Weather History Graph

Daily Weather History Graph

Search for Another Location

Airport:

Trip Planner

Search our weather history database for the weather conditions in past years. The results will help you decide how hot, cold, wet, or windy it might be!

Date:

Astronomy

Apr. 16, 2013 Rise Set
Actual Time 7:37 AM CEST 9:01 PM CEST
Civil Twilight 7:08 AM CEST 9:30 PM CEST
Nautical Twilight 6:34 AM CEST 10:05 PM CEST
Astronomical Twilight 5:57 AM CEST 10:42 PM CEST
Moon 11:41 AM CEST (4/16) 1:50 AM CEST (4/16)
Length of Visible Light 14h 21m
Length of Day
13h 23m
Waxing Crescent, 31% of the Moon is Illuminated
Apr 16
Waxing Crescent
Apr 18
First Quarter
Apr 25
Full
May 2
Last Quarter
May 10
New

Hourly Weather History & Observations

Time (CEST) Temp. Dew Point Humidity Pressure Visibility Wind Dir Wind Speed Gust Speed Precip Events Conditions
7:00 AM 46.4 °F 41.0 °F 81% 30.21 in - WSW 1.2 mph - N/A   Clear
7:30 AM 44.6 °F 41.0 °F 87% 30.21 in - SE 1.2 mph - N/A   Clear
8:00 AM 46.4 °F 41.0 °F 81% 30.21 in - Calm Calm - N/A   Clear
8:30 AM 46.4 °F 42.8 °F 87% 30.21 in - SSE 2.3 mph - N/A   Clear
9:00 AM 50.0 °F 46.4 °F 87% 30.21 in - Variable 2.3 mph - N/A   Clear
9:30 AM 53.6 °F 46.4 °F 77% 30.21 in - Calm Calm - N/A   Clear
10:00 AM 57.2 °F 46.4 °F 67% 30.21 in - Calm Calm - N/A   Clear
10:30 AM 59.0 °F 46.4 °F 63% 30.24 in - Variable 2.3 mph - N/A   Clear
11:00 AM 59.0 °F 50.0 °F 72% 30.24 in - Variable 2.3 mph - N/A   Clear
11:30 AM 60.8 °F 46.4 °F 59% 30.24 in - Variable 2.3 mph - N/A   Clear
12:00 PM 60.8 °F 44.6 °F 55% 30.24 in - Variable 2.3 mph - N/A   Clear
12:30 PM 62.6 °F 44.6 °F 52% 30.24 in - Variable 2.3 mph - N/A   Clear
1:00 PM 64.4 °F 46.4 °F 52% 30.24 in - Variable 1.2 mph - N/A   Clear
1:30 PM 64.4 °F 48.2 °F 56% 30.24 in - East 1.2 mph - N/A   Clear
2:00 PM 66.2 °F 50.0 °F 56% 30.21 in - Variable 2.3 mph - N/A   Clear
2:30 PM 66.2 °F 48.2 °F 52% 30.21 in - SW 2.3 mph - N/A   Clear
3:00 PM 66.2 °F 46.4 °F 49% 30.21 in - Calm Calm - N/A   Clear
3:30 PM 68.0 °F 48.2 °F 49% 30.21 in - Variable 2.3 mph - N/A   Clear
4:00 PM 68.0 °F 48.2 °F 49% 30.21 in - Variable 2.3 mph - N/A   Clear
4:30 PM 69.8 °F 48.2 °F 46% 30.18 in - Calm Calm - N/A   Clear
5:00 PM 68.0 °F 44.6 °F 43% 30.18 in - SW 3.5 mph - N/A   Clear
5:30 PM 68.0 °F 48.2 °F 49% 30.18 in - SW 3.5 mph - N/A   Clear
6:00 PM 69.8 °F 46.4 °F 43% 30.18 in - Variable 2.3 mph - N/A   Clear
6:30 PM 69.8 °F 44.6 °F 40% 30.18 in - Calm Calm - N/A   Clear
7:00 PM 69.8 °F 46.4 °F 43% 30.18 in - Variable 2.3 mph - N/A   Clear
7:30 PM 69.8 °F 44.6 °F 40% 30.18 in - Variable 2.3 mph - N/A   Clear
8:00 PM 68.0 °F 42.8 °F 40% 30.18 in - NW 2.3 mph - N/A   Clear
8:30 PM 66.2 °F 44.6 °F 46% 30.18 in - Calm Calm - N/A   Clear
9:00 PM 64.4 °F 44.6 °F 49% 30.18 in - Calm Calm - N/A   Clear
9:30 PM 60.8 °F 50.0 °F 68% 30.18 in - North 2.3 mph - N/A   Clear